Location: Asheville, NC
(35.6000°N, 82.5500°W)
Time: 19:40:46
(UTC-04:00)

Vanguard 1 Rocket - Pass Details

Date: 09 March 2018
Orbit: 653 x 4224 km, 34.3° (Epoch: 23 June)

Event Time Altitude Azimuth Distance (km) Brightness Sun altitude
Rises 22:30:46 0° 276° (W) 5,369 11.9 -46.6°
Reaches altitude 10° 22:33:34 10° 276° (W) 4,720 11.4 -47.0°
Enters shadow 22:47:16 79° 233° (SW) 3,285 9.8 -49.1°
Maximum altitude 22:48:33 82° 192° (SSW) 3,351 - -49.3°
Drops below altitude 10° 23:14:14 10° 109° (ESE) 7,425 - -52.8°
Sets 23:20:07 0° 109° (ESE) 8,429 - -53.5°
